Race Results for
2014 GHORBA Big Ring Challenge
Coldspring, TX
(Event Information)
View By:
Cross Country on 05/04/2014

Note: Ranking points are NOT upgrade points. An explanation of ranking points can be found here.


Men - SS Open

 Place Points NameCity, StateTime USAC #BibTeam
1487.94 Jeff Shoemake   Houston01:43:09.000 111415  24 WayPastFast
2513.46 Michael Kuehnel   Saint Louis Mo01:43:17.000 403263  67 Sugar Cycles/Wholesome Sweetners
3538.98 John Martin   Houston, TX01:44:06.000 287196  126 BikeSport/ION
4564.50 Bryan Voytilla   Houston, TX01:49:35.000 258654  10 Corsa Concepts Cyclocross Team
5590.02 William Lamb   Crawford, TX02:11:45.000 364869  16 Bicycles Outback p/b Jubilee Mitsubishi
DNS Johnny Petrosky   Houston, TXDNS 214208  57 Tile Roofs of Texas/Bike Barn

Men - SS 2/3 - 0-99

 Place Points NameCity, StateTime USAC #BibTeam
1511.84 Frank Musil (1 - Cat3)   Houston, TX01:44:37.000 428940  360 
2515.10 Timmy Palacios   Floresville, TX01:45:23.000 144600  367 Someone Pick a Name Already
3 Gary Rogers   01:46:49.000  245 Team Bike Lane
4521.62 John Kite   Kingwood Tx01:47:12.000 391738  204 WTF/The Bike Man/DIRT Racing
5524.88 Greg Harrah   Tomball, TX01:47:59.000 138284  327 TEAM BIKE LANE
6528.14 Brandon Lucas   Houston, TX01:48:58.000 243136  279 Mafia Racing
7531.40 Francisco Cano   Sugar Land, TX01:49:41.000 366415  202 Dirt Racing/Bike Route
8534.66 Rob Spooner   Cedar Park, TX01:51:53.000 325498  364 Bicycle Sport Shop Mountain Bike Club
9537.92 Shawn Brasher   Dickinson, TX01:52:01.000 331996  293 Texas Health Pro
10541.18 Patrick McSwain   Houston, TX01:52:22.000 401313  372 Ham Cycles
11 Miguel Alvarez   01:52:39.000  334 Bike Route/EnviroInks.com
12547.70 Steven Mugridge   Kingwood01:53:59.000 390360  205 Dirt Racing
13 Luke Fletcher   01:54:08.000  208 
14554.22 Seth Montgomery   Spring, TX01:57:43.000 333088  250 Team Bike Lane
15557.48 Chad Giardina   Spring, TX01:58:36.000 433625  369 Team West U
16 Lance Hyde   01:58:37.000  373 OMW Racing
17 Chris Quick   01:59:28.000  325 Texas Prohealth Racing
18567.26 Erik Streight   Houston, TX01:59:43.000 178201  348 West End
19570.52 Aaron Leachman   Houston, TX02:00:01.000 360596  280 
20 Gene Suvicek   02:01:10.000  305 Performance Bikes
21577.04 Chris McClung   Bruceville, TX02:03:41.000 388508  312 Bicycles Outback Racing
22580.30 Clair Melton   Austin, TX02:03:48.000 127812  301 
23 Carlos Relova   02:03:49.000  302 Bat City
24586.82 Chris Labod   Tomball, TX02:04:20.000 291124  358 Bike Lane
25 Ofilio Loza   02:06:29.000  347 
DNF Brian Bergesen   DNF  309 Houston Imports
DNF Gus Bruna   Spring, TXDNF 368636  365 Bike Lane
DNF Dac Calderhead   Houston, TXDNF 142035  218 Bikesport/ION
DNF Andrew Petrisko   DNF  306 Performance
DNF Gordon Greenblatt   DNF  281 Performance Bike
DNF Nathan Rodriguez   DNF  307 
DNF Dennis Moroney (Cat3)   Houston, TXDNF 367794  247 Bikesport/WTF

Men - Pro/Cat 1

 Place Points NameCity, StateTime USAC #BibTeam
1324.02 Scott Henry   Austin, TX01:36:13.000 254  121 Cycle Progression
2337.38 Nathan Winkelmann   Huntsville, TX01:36:31.000 188575  64 Bike Lane / WTF
3350.74 Mason Shea   Austin Tx01:37:09.000 286395  77 Coach Amadi
4364.10 Scott Minard   Houston, TX01:37:22.000 92947  Bayou City Racing
5377.46 Jonny Sundt   Austin, TX01:37:49.000 34666  70 Giant South
6390.82 Eric Sutton   Sugar Land, TX01:38:13.000 272155  118 Sugar Cycles/EnergyLab
7404.18 Will Black   Austin, TX01:39:36.000 58540  122 Mellow Johnny's Bike Shop
8417.54 Ethan Storm   Arlington, TX01:39:38.000 341794  40 Dallas Bike Works/Martin High School
9430.90 Mike Aguayo   Spring, TX01:39:44.000 282793  46 Team Bike Lane
10444.26 Brady Stewart   Spring Branch, TX01:40:44.000 345142  68 Chain Link Racing
11457.62 Luke Fleming   Damon, TX01:40:46.000 264100  99 Sugar Cycles Factory Team
12470.98 Brian Barrow   San Marcos, TX01:41:57.000 225274  112 The Peddler Bike Shop
13484.34 Dwayne Otto   Muenster, TX01:43:51.000 26937  97 Bicycles Plus
14497.70 L J Miller   Austin, TX01:55:01.000 158817  30 Turner Bikes
DNF Hayden Gore   Houston, TXDNF 300480  123 Team Robot Smash

Men - Cat 1 - 15-18

 Place Points NameCity, StateTime USAC #BibTeam
1469.56 James Procter   Sherman Tx01:45:12.000 368688  103 Cadence Cyclery
2520.86 Brandon Fourroux   Greenwell Springs, LA01:47:02.000 404231  115 Wreckless Racing
3572.16 Garrett Rolfe   Haughton, LA01:47:03.000 362004  37 Team LaS'port

Men - Cat 1 - 19-29

 Place Points NameCity, StateTime USAC #BibTeam
1439.53 Miles Juneau   Greenwell Springs, LA01:41:20.000 378436  116 Wreckless Racing
2460.03 Andrew Cork   Waco, TX01:42:16.000 301724  61 Outdoor Waco
3480.53 benjamin allen   Prairieville, LA01:43:34.000 395512  82 Wreckless Racing
4501.03 Brandon Barber   Houston, TX01:44:07.000 284774  106 Mafia Racing
5521.53 Alex Garza   San Marcos, TX01:50:20.000 299037  54 BSS

Men - Cat 1 - 30-39

 Place Points NameCity, StateTime USAC #BibTeam
1371.80 Don Sutton   Deer Park, TX01:39:37.000 303581  EnviroInks/BayAreaCycles/WTF
2386.83 Dale Dawson   Arlington, TX01:39:42.000 377743  80 Team PACC
3401.86 Andrew Neilson   Houston, TX01:40:13.000 235610  Sugar Cycles Factory Team
4416.89 Adam Butler   Austin, TX01:41:47.000 360105  45 Orange Seal/Peddler Bike Shop
5431.92 Paul Wegman   Austin, TX01:42:35.000 393030  87 Mafia Racing
6446.95 Paul Loesch   New Braunfels, TX01:43:15.000 394847  105 Chain Link Racing
7461.98 Dominic Adl   Houston, TX01:43:46.000 277431  12 Bike Barn
8477.01 Scott Sharrar   Houston, TX01:43:51.000 280922  110 Bike Barn Texas
9492.04 Zach Ross   Houston , TX01:44:01.000 310652  76 Tile Roofs of Texas
10507.07 Robert Johnston   New Braunfels, TX01:44:14.000 396233  111 Chain Link Racing
11522.10 Armando Espinosa Jr.   Clear Lake01:44:16.000 369239  108 Bike Barn
12537.13 Lucas Hilbrich   League City, TX01:44:29.000 394602  35 Aussie Cycle Works
13552.16 William Lockridge   Chelsea, AL01:47:23.000 300922  21 Team Bike Lane
14567.19 Andy Pace   Houston, TX01:55:10.000 186414  41 Team Bike Lane

Men - Cat 1 - 40-49

 Place Points NameCity, StateTime USAC #BibTeam
1332.39 Gareth Jones   Houston, TX01:39:17.000 366136  59 Redwood Singletrack
2342.34 Eric Warden   Flower Mound, TX01:39:44.000 112874  13 Cadence Cyclery
3352.29 John Madden   Houston, TX01:39:45.000 308953  27 Sugar Cycles / Wholesome Sweeteners
4362.24 Jonathan Pattie   Austin, TX01:40:20.000 97614  BULLY HILL RACING / Mellow Johnny's
5372.19 Daniel R. Martinez   Houston, TX01:40:52.000 308180  26 Cyclone Cycles
6382.14 Paul Fafard   Austin, TX01:41:15.000 258845  51 Cycle Progression
7392.09 Clint Fontenot   Conroe, TX01:41:56.000 282583  31 Bike Lane
8402.04 Kevin Fontenot   The Woodlands, TX01:42:22.000 271193  11 Team Bike Lane
9411.99 Mick McDonald   Houston, TX01:42:29.000 23403  117 cookford/bayareacyclery
10421.94 Rob Sisk   Houston, TX01:42:32.000 165285  50 Bikesport
11431.89 Fred Gray   Spring, TX01:43:20.000 187011  60 Team Bike Lane
12441.84 Jim Storey   Spring, TX01:43:38.000 423610  Bike Barn
13451.79 Brandon Cunningham   Houston, TX01:43:40.000 99593  95 Las Vegas Cyclery
14461.74 Brett Faulk   Houston, TX01:44:02.000 11325  48 Bayou City Racing
15471.69 John Larson   Mckinney, TX01:44:19.000 194312  85 Dallas Bike Works
16481.64 Josue Ramos   Arlington, TX01:44:24.000 334912  43 Nutriworks
17491.59 Carlos Uranga   Irving, TX01:45:03.000 325182  14 PACC
18501.54 Boyd Wallace   Garland, TX01:45:11.000 163030  84 Dallas Bike Works / Team Hooters
19511.49 Matt Lutz   Houston, TX01:45:44.000 21886  39 Bailey Bikes
20521.44 Aaron McDowell   Longview, TX01:46:17.000 378597  72 
21531.39 James Webb   Kyle, TX01:46:52.000 199834  29 Mafia Racing South GIANT/PBR/ORANGE SEAL
22541.34 Alex Vasquez   Pearland, TX01:47:14.000 149224  119 Team Tilson Homes
23551.29 Aaron De La Garza   San Antonio01:48:56.000 396230  86 BikeWorld Racing
24561.24 Brian Freeze   Houston, TX01:50:26.000 12361  90 Bicycle World of Houston
25571.19 Alex Bernard   Houston, TX01:50:34.000 156895  Bayou City Racing
26581.14 William Mabus   Dallas, TX01:54:13.000 42117  55 Orbea-Mavic
DNS Mark Mihailoff   AustinDNS 385885  23 CrankHouse Cycles
DNF Dustin Payne   Austin, TXDNF 248131  36 Ozone Bikes
DNF Darryl Rosenfeld   Bellaire, TXDNF 255458  Bike Barn Texas

Men - Cat 1 - 50-59

 Place Points NameCity, StateTime USAC #BibTeam
1362.63 Chris Carlson   Plano, TX01:41:30.000 6135  114 RBM/Matrix
2372.33 Adam Salladin   Kerrville, TX01:42:00.000 31116  63 Hill Country Bicycle Works
3382.03 Steve Houlbjerg   Kennedale, TX01:44:29.000 16827  17 Colonel's / Sho-Air
4391.73 Brian Zettner   San Antonio, TX01:44:30.000 186298  44 Bike World Racing
5401.43 David Mackey   Magnolia, TX01:46:53.000 205028  19 Team Bike Lane
6411.13 Mark Landeck   Seabook, TX01:46:54.000 188556  75 Texas Pro Health Racing
7420.83 Tony Sturdivant   San Angelo, TX01:47:18.000 269518  Concho Bike/Hanks Racing
8430.53 Chris Olson   Houston, TX01:47:31.000 26709  98 
9440.23 John Worzel   Spring, TX01:48:09.000 325610  28 Southern Elite/Sun & Ski Sports/PARD
10449.93 Jim Olmsted   Waco, TX01:49:32.000 370548  18 Waco Bicycle Club
11459.63 Mike Rossi   Houston, TX01:49:35.000 107218  33 Bikesport
12469.33 Diego Velasquez   Mckinney, TX01:49:37.000 269478  92 Team Aguila
13479.03 Kevin Highfield   Spring, TX01:51:08.000 218694  88 Southern Elite/Sun & Ski Sports/PARD
14488.73 Matthew Tinonga   Plano, TX01:52:38.000 35626  109 Team PACC
15498.43 John Fleming   Damon, TX01:53:04.000 273864  100 Sugar Cycles
16508.13 Roel Chapa   Arlington, TX01:53:44.000 291206  102 Bicycles Inc.
17517.83 Mark Johnson   Plano, TX01:54:00.000 365838  25 Team PACC
18527.53 John Baxendale   Lakeway, TX01:55:43.000 105033  47 Colonal Bank Cycling
19537.23 Mike Kolat   Lake Jackson, TX02:10:31.000 88139  107 
20546.93 Scott Schaefer   Houston, TX02:13:09.000 126923  83 Southern Elite/Sun&Ski
DNF Robert Coreale   Houston, TXDNF 7789  74 Tile Roofs of Texas/Bike Barn

Men - Cat 1 - 60-99

 Place Points NameCity, StateTime USAC #BibTeam
1450.73 Spencer Jewell   Waco, TX01:54:27.000 110566  124 Bicycles Outback p/b Jubilee Mitusbishi
2467.60 Rolf Laub   Houston, TX01:57:54.000 106296  49 Bike Sport
3484.47 Mark Hargis   Grapevine, TX02:00:29.000 140813  79 Bicycles Inc.
4501.34 Steven McConathy   Houston, TX02:02:44.000 282239  101 Bikin'n Eggs p/b Bike Barn
5518.21 Bo Kral   Beaumont, TX02:02:54.000 129177  78 
6535.08 Frederic Schmid   Waco, TX02:05:32.000 109257  81 Bicycles Outback p/b Jubilee Mitsubishi
7551.95 Peter Bielinski   Houston, TX02:06:37.000 154163  127 
8568.82 John Howell   Austin, TX02:07:33.000 169633  93 Bicycle Sport Shop
9585.69 Desmond Rolf   La Marque, TX02:24:42.000 105398  91 Bikesport/Ion
DNF Jack Hicks   Austin, TXDNF 16105  94 Team Cycle Progression

Men - Cat 2 - 15-18

 Place Points NameCity, StateTime USAC #BibTeam
1462.51 Ashton Dubroc   Sugar Land, TX01:44:41.000 344376  229 Team Bike Lane
2 Zachary Risher   01:47:37.000  223 
3495.79 Harrison Worzel   Spring, TX01:51:25.000 349314  236 Southern Elite/Sun & Ski Sports/PARD
4512.43 Austin Wagner   Burleson, TX01:52:15.000 336530  345 Richardson Bike Mart/Matrix
5529.07 Mauricio Garcia   Dallas, TX01:54:29.000 423862  300 PARK PLACE DEALERS/SUN &SKI/IMC
DNF Michael Hamric   Spring, TXDNF 364786  313 Bike Barn - Texas

Men - Cat 2 - 19-29

 Place Points NameCity, StateTime USAC #BibTeam
1507.27 Levi Knudson   Gig Harbor01:45:06.000 426311  259 Bikelane
2516.20 Bill Quach   Houston, TX01:45:45.000 327834  356 Southern Elite/Sun & Ski
3525.13 Canyon Emmott   Spicewood, TX01:45:52.000 423657  362 Crank House Cycles
4534.06 Justin Carver   Austin01:47:36.000 377048  212 Bike Barn
5542.99 Mason Guin   Austin, TX01:49:14.000 426072  351 Exhale Bikes
6551.92 Trey Flores   Houston, TX02:02:45.000 274383  207 Sugar Cycles/Wholesome Sweetners
7560.85 Rodrigo Garza   The Woodlands, TX02:04:55.000 412828  239 
8569.78 Trendon Huebner   Houston, TX02:06:39.000 311460  254 Team West End
9 Josh Zier   02:17:25.000  368 
DNS Daniel Hawkins   Bloomington, MNDNS 119664  201 

Men - Cat 2 - 30-34

 Place Points NameCity, StateTime USAC #BibTeam
1501.86 Geoffrey Bent   Houston, TX01:45:19.000 356496  318 Bayou City Racing
2507.16 Ryan Tarkington   Houston, TX01:45:38.000 346958  335 WTF
3512.46 Jose Martinez   Houston, TX01:45:57.000 342642  326 Sugar Cycles
4517.76 Dylan Murdock   Allen, TX01:48:49.000 387748  273 
5523.06 Arnold Haffner   San Antonio, TX01:49:34.000 394128  296 BikeWorld Racing
6528.36 Jorge Ramirez   Houston, TX01:50:00.000 394506  225 
7533.66 James Kling   Grand Prairie, TX01:50:17.000 412646  366 Danny Shane
8538.96 Brad Prescott   Orrington, ME01:50:30.000 94615  340 
9 David Howard   01:51:58.000  230 Blue Line Bike Lab
10549.56 Jeremy Reyna   Katy, TX01:52:10.000 242721  249 Bikesport
11554.86 Mike Schwarzkopf   Conroe, TX01:53:01.000 326332  248 Team Bike Lane
12 Torben Kissner   01:53:26.000  211 RSV-Pfaffenuber
13565.46 Tony Barrera   Laredo01:57:43.000 393972  251 Bike World Racing
14570.76 Justin Blake   Duncanville, TX01:59:55.000 406592  343 
15576.06 Jeremy Watkins   Austin, TX02:05:23.000 377796  289 Bicycle Sport Shop
16581.36 Fabien Anne   Houston, TX02:12:02.000 367138  355 
17586.66 Jason Horn   Katy, TX02:26:32.000 422225  338 
DNF Ryan Wunderlich   Tomball, TXDNF 304885  274 Team Bike Lane

Men - Cat 2 - 35-39

 Place Points NameCity, StateTime USAC #BibTeam
1480.81 Richard Drew   Dallas01:40:21.000 422757  341 PACC
2491.73 Jason Schaller   Austin, TX01:43:53.000 392625  243 
3502.65 Toby Rider   Plano01:47:21.000 412338  342 Team PACC
4513.57 Shane Salley   Mc Kinney, TX01:48:56.000 418500  234 Taco Casa Racing
5524.49 Nelson Herrera   Houston, TX01:49:14.000 368825  275 WTF Racing
6535.41 Julio Mena   Spring01:49:39.000 367360  209 Bike Barn Texas
7546.33 Keith Barron   Spring, TX01:51:37.000 430195  319 TruTri
8557.25 Alan Rodriguez   Houston, TX01:51:47.000 365553  224 Superior Haulers
9568.17 Joseph Laochaloenvanich   Austin, TX01:54:59.000 339446  203 Voodoo Racing
10579.09 Mike Moyers   Spring, TX01:55:00.000 109114  226 Southern Elite/Sun & Ski Sports
11590.01 Brandon Jackson   Cypress, TX02:28:31.000 332080  266 Bikesport/ION
DNF Guillermo Urquiza   Houston, TXDNF 433127  235 

Men - Cat 2 - 40-44

 Place Points NameCity, StateTime USAC #BibTeam
1478.74 Michael Adams   Conroe, TX01:45:57.000 286993  283 Team Bike Lane
2484.60 John Cantu   San Antonio, TX01:47:54.000 256425  213 
3490.46 Michael Granata   Dallas, TX01:48:21.000 386285  237 Dallas Bike Works
4496.32 Clayton Perriraz   Conroe, TX01:48:23.000 342024  304 Racing Critters
5502.18 Mack McKinney   Dallas, TX01:48:57.000 301751  299 Dallas Bike Works / Team Hooters
6 David Bellante   01:50:49.000  320 
7513.90 Brad Harmon   Round Rock, TX01:51:02.000 307753  262 Orange Seal Cycling
8519.76 Jeff Grant   Houston01:51:10.000 365814  363 Shama Cycles
9525.62 Keith Gumney   Houston, TX01:52:12.000 237540  257 Bikesport/ION
10531.48 Gregory Dillon   Rosharon01:52:46.000 413318  256 Sugar Cycles / Wholesome Sweetner
11537.34 Troy Inman   Austin, TX01:55:24.000 102960  238 
12543.20 Preston Ridley   Plano, TX01:55:36.000 423898  246 
13549.06 David Cervera   Houston, TX01:56:17.000 395653  240 Bike Barn
14554.92 Steve Dawson   Grand Prairie, TX01:57:25.000 384954  258 PACC
15560.78 Jeremy Harvey   Houston, TX01:57:33.000 144454  214 Planetary Cycles
16566.64 Gabriel Ayala   Canyon Lake, TX01:59:37.000 422391  298 Chail Link
17572.50 Colin Hill   `02:01:07.000 283831  321 Bike Barn Texas
18578.36 Josh Michael   Fullerton, CA02:01:49.000 131073  290 Outrival Racing
19584.22 Stewart Campbell   Richardson, TX02:03:30.000 96880  352 
20590.08 Chris Clendenin   Arlington Tx.02:05:58.000 417423  252 Dallas Bike Works
DNS Robert Gray   Fulshear, TXDNS 305309  261 Volharden
DNS Leonard Sands   DNS  206 
DNF Troy Anderson   DallasDNF 341138  255 PACC

Men - Cat 2 - 45-49

 Place Points NameCity, StateTime USAC #BibTeam
1499.59 Kevin Mays   Kerrville, TX01:46:03.000 143426  336 Hill Country Bicycle Works
2502.50 Gary Hanna   Lockhart01:46:04.000 420176  210 Mafia Racing
3505.41 Allen Abell   New Braunfels, TX01:46:21.000 147032  346 Bicycle Heaven
4508.32 David Larrabee   Converse, TX01:47:51.000 367860  263 Action Bikes
5 Shaun Martin   01:49:05.000  277 HHR/NFABT Mandingo
6514.14 Brian Grubbs   Hutto, TX01:49:22.000 350038  215 Flying Pigs / Bicycle Sport Shop
7517.05 David Almanzan   Houston, TX01:50:06.000 300879  264 BNW Team
8519.96 David O'Bryan   Leander Tx.01:50:08.000 393934  242 
9522.87 Shawn Harris   Tomball, TX01:50:26.000 220914  344 Team Bike Lane
10525.78 John Eddington   Plano Tx01:51:00.000 382527  310 Team PACC
11 Jimmy Bautch   01:51:23.000  324 
12 John Riggs   01:52:18.000  311 USVI
13534.51 Frank Karbarz   Houston, TX01:53:26.000 70407  374 GCCA
14537.42 Brett Kinsey   Austin, TX01:53:37.000 273017  323 Bicycle Sport Shop
15540.33 Devin Wedward   Round Rock, TX01:54:27.000 396499  244 
16543.24 Philip Teitel   Houston, TX01:54:34.000 255092  297 Bicycle World of Houston/P -n- J -n- J
17546.15 Greg Lyons   Houston, TX01:54:45.000 255609  329 
18549.06 Scott Long   Keller, TX01:55:05.000 144572  292 
19 Joel Jimenez   01:55:19.000  322 Cabritas Bike Mexico
20554.88 Terry Riley   Dallas, TX01:57:00.000 420699  286 PACC
21557.79 Tracy Gore   Houston, TX01:58:48.000 400830  316 Bike Barn
22560.70 Allen Brady   Houston01:58:56.000 111480  371 OMW Racing
23563.61 Dennis Livingston   Red Oak, TX01:59:22.000 185910  337 VentureExpeditions.org
24566.52 Joseph Gabriel   Austin Tx01:59:23.000 345882  282 Bicycle World of Houston / HTFU
25569.43 Chris Sechelski   Houston, TX02:00:23.000 393549  216 GHORBA.org
26 John Procter   02:00:58.000  308 Southern Elite/Sun & Ski Sports/PARD
27575.25 David Gill   Katy, TX02:06:12.000 244111  269 
28578.16 Robert Yates   Rowlett, TX02:06:45.000 358226  217 RBM/Matrix
29 Ben Bergman   02:13:40.000  330 
30583.98 Dan Hickman   Austin, TX02:28:09.000 154632  271 OMW Racing
31 Victor Rey   02:41:24.000  332 
DNF Brett Allison   Cleburne, TXDNF 423801  317 Tandy Leather/Spokes

Men - Cat 2 - 50-99

 Place Points NameCity, StateTime USAC #BibTeam
1492.72 Randy Gibson   Plano, TX01:48:07.000 422142  222 Team PACC
2497.14 Marty Garza   Mcallen, TX01:49:20.000 144548  278 Team McAllen Racing
3501.56 Jody de St. Germain   Allen, TX01:51:56.000 342192  221 PACC
4505.98 Phil Lewis   Georgetown, TX01:52:37.000 378497  276 
5510.40 Don Schwieters   Austin, TX01:53:03.000 371432  241 OMW
6514.82 John Dowling   Seabrook, TX01:56:14.000 318478  287 Dirt Racing
7519.24 Bob Sparacino   Sugar Land, TX01:56:47.000 396754  295 Bike Lane
8523.66 Chris Robin   Houston, TX01:56:50.000 339330  253 Team Bike Barn Texas
9528.08 Corvin Alstot   Houston, TX01:57:18.000 1477  333 Bayou City Racing
10532.50 Jeff Westerheide   Dallas, TX01:57:19.000 232998  349 Dallas Bike Works
11536.92 Jay Nordeen   San Antonio, TX01:57:32.000 64169  260 
12541.34 Bill Petko   Spring, TX01:59:14.000 377003  228 
13545.76 Mike Robin   Houston, TX02:00:17.000 340466  270 moreinternational.com
14550.18 Martin Rojas   Cedar Park, TX02:01:14.000 197399  339 
15554.60 Miguel Villarreal   Spring Tx02:01:24.000 433320  268 West End Bikes
16559.02 Nigel Willerton   Sugar Land, TX02:01:25.000 394954  361 Sugar Cycles
17563.44 James McCulloch   Houston, TX02:01:27.000 93973  315 Urban Bike Gallery
18567.86 Michael Hamric   Spring, TX02:01:28.000 337270  314 Bike Barn - Texas
19572.28 Bobby Baker   Spring, TX02:02:44.000 367720  233 
20576.70 John Conwell   Houston, TX02:05:08.000 273029  294 Northwest Cycling
21581.12 Matthew Tyler   Morristown02:11:08.000 413326  284 Planetary Cycles
22 Chris Fry   02:24:05.000  231 Dovetail Racing
23 Rob Hibbetts   02:44:30.000  353 
DNF Bill Prater   DNF  291 

Men - Cat 3 - 1-10

 Place Points NameCity, StateTime USAC #BibTeam
1498.17 Will Mabus   Dallas, TX00:37:56.000 428254  405 
2502.76 Sam Sharp   Katy, TX00:39:35.000 420197  417 
3 Mateo Mora   00:39:42.000  407 Bike Barn
4 John Nevin   00:39:43.000  415 Nevin Racing Team
5516.53 David De Pujadas   Houston, TX00:40:38.000 408898  409 Ham Cycles
6 III Armer   00:41:43.000  Sidney E. 411
7525.71 Ian Lewis   Saint Peters, MO00:42:01.000 232280  408 
8530.30 Gabriel Payne   Austin00:42:52.000 422404  403 Ozone Bikes
9534.89 Luke Bender   Houston, TX00:42:55.000 396737  401 Neilson Development
10539.48 Reid Griffin   Sherman00:43:09.000 428951  418 Team Griffin
11544.07 Cameron Koen   Cypress, TX00:44:04.000 390154  420 Team Bike Lane
12 James Brady   00:44:54.000  587 
13 Jackson Brady   00:45:08.000  419 OMW Racing
14557.84 Noah DeAth   Houston, TX00:45:16.000 433713  423 
15 Duncan Nunnelly   00:45:21.000  421 Bike Barn
16 Nik Black   00:45:32.000  414 Mellow Johnny's
17 Lane O'Neal   00:45:48.000  424 
18 David Elias   00:47:22.000  404 
19 Sam Nevin   00:47:36.000  416 Nevin Racing Team
20585.38 Collin McKinney   Dallas, TX00:49:45.000 418540  425 Dallas Bike Works
21 Andrew Yengle   00:51:44.000  410 Bicycle World
DNS Parker Finton   DNS  406 Trikin Out Truks

Men - Cat 3 - 11-12

 Place Points NameCity, StateTime USAC #BibTeam
1431.02 Aidan Bond   San Antonio, TX00:51:51.000 329966  676 Hill Country Bicycle Works
2437.69 Luke Abell   New Braunfels, TX00:51:53.000 426237  680 Hill Country Bicycle Works
3444.36 Connor Rainey   Waco, TX00:52:10.000 366959  670 Bicycles Outback Racing
4451.03 Ian Petko   Spring, TX00:56:17.000 377764  673 
5457.70 Chase Griffin   Sherman00:57:16.000 386389  679 Cadence Cyclery
6464.37 Adin Jose   Pflugerville, TX01:00:03.000 425398  683 ManifestoMinistry/Peddler
7 Derek Shelburne   01:01:36.000  672 Twisted X Brewery
8 Garrett Bowden   01:02:34.000  681 Team Xcelerators
9 Christian Muse   01:11:49.000  678 
DNS Ben Gray   Fulshear TxDNS 366005  675 Southern Elite/Sun & Ski

Men - Cat 3 - 13-14

 Place Points NameCity, StateTime USAC #BibTeam
1433.61 Jonathan Loggins   Arlington, TX00:58:58.000 391110  603 
2439.47 Will Sharp   Katy, TX00:59:26.000 385678  537 Southern Elite/Sun&Ski
3445.33 Logan Rainey   Waco, TX00:59:27.000 366961  451 Bicycles Outback/Jubilee Subaru
4451.19 Jayden Hakala   San Antonio, TX00:59:51.000 375437  557 Ride Away Bicycles
5457.05 Logan Maxey   Royse City, TX01:01:36.000 288879  529 Cadence Cyclery of McKinney
6462.91 Hayden Otto   Muenster, TX01:08:30.000 366868  621 Mad Duck Cyclery
7468.77 Adin Allison   Cleburne, TX01:32:45.000 423803  572 Tandy Leather/Spokes

Men - Cat 3 - 15-18

 Place Points NameCity, StateTime USAC #BibTeam
1447.36 Alfredo Figueroa   Houston, TX00:54:28.000 422569  581 Sun & Ski/Southern Elite
2455.56 Justin Mosier   Kerrville, TX00:54:29.000 396717  610 Hill Country Bicycle Works
3463.76 Cole Weidenbach   Spicewood Tx00:55:59.000 422159  440 Lake Travis
4471.96 Max Underhill   Fair Oaks Ranch, TX00:56:26.000 291057  499 Hill Country Bicycle Works
5480.16 Ryon Mays   Kerrville00:56:39.000 425920  575 Hill Country Bicycle Works
6488.36 Nick Mohan   Crawford00:58:48.000 426280  631 Bicycles Outback/Jubilee Subaru
7496.56 Nash Lilly   Irving, TX00:59:44.000 341232  598 Cadence Cyclery
8504.76 Cole Jackson   Sugar Land, TX01:00:10.000 361676  577 Sugar Cycles
9512.96 Walker Karnstadt   Austin01:00:36.000 425736  470 
10521.16 Zach Spears   Magnolia, TX01:01:01.000 413271  513 
11529.36 Rhys IvoryGanja   The Woodlands , TX01:02:16.000 424260  599 Bike World
12 Jeremy Pitts   01:03:32.000  474 meat
13545.76 Austin Love   Montgomery, TX01:05:38.000 419933  491 Lake Conroe Cyclng
14 Riley Piper   01:08:15.000  472 
15 Sean Brown   01:08:30.000  473 
16570.36 Peter Bond   Chevy Chase, MD01:17:51.000 311674  544 Bike World Racing/Lopez Middle School
17 Jorden Bryant   01:24:09.000  539 Webb Racing
DNS Brandon Coppage   DNS  551 

Men - Cat 3 - 19-29

 Place Points NameCity, StateTime USAC #BibTeam
1540.00 Tim Hayes   San Marcos, TX00:54:16.000 388979  639 Texas State
2541.61 David Matuschak   Maxwell, TX00:54:28.000 278079  638 Arrowhead Bicyles
3 Amilka Surek   00:54:30.000  590 
4 Zach Smith   00:56:37.000  489 
5546.44 Travis Dubose   Houston00:57:25.000 285589  478 Tad Hughes Custom Fit
6 Nico Cavarretta   00:57:32.000  545 
7 Jacob Turbyfill   00:57:45.000  653 
8 Allen Kuo   00:58:32.000  461 
9552.88 Stephen Campbell   Tuscaloosa, AL00:58:47.000 145148  475 
10554.49 Ethan Farabaugh   Houston, TX00:58:56.000 413959  588 
11 Vincent Stoker   00:59:03.000  476 
12557.71 Reyanthony Garcia   Cotulla Tx00:59:20.000 391160  562 
13559.32 Frederick Fenner   Houston, TX00:59:22.000 280633  525 Planetary Cycles
14 Eric Yeager   00:59:42.000  502 
15562.54 Sean Ofield   Houston, TX00:59:47.000 366238  453 
16 Logan Jorgensen   00:59:49.000  480 
17 Francisco Garcia   01:00:05.000  623 Ham Cycles
18567.37 Jesus Vasquez   Laredo, TX01:00:43.000 336760  618 Ciclo Mania Bicycle
19 Adam Bellesheim   01:02:01.000  498 
20 Deidre Hernandez   01:02:55.000  606 
21 Huan Huynh   01:04:38.000  494 blakFin
22 Tim Cota   01:04:44.000  512 
23575.42 Cameron Gentles   San Marcos, TX01:09:04.000 301349  627 
24 Aaron Garcia   01:09:38.000  591 
25 Paul Porto   01:09:47.000  547 Aupaz
26 Jon Scott Wiesner   01:14:31.000  633 
27 Sammy Lopez   01:15:58.000  622 Ham Cycles
28 Justin Cochran   01:16:12.000  564 
29585.08 Javier Estrada   Santa Clara, CA01:20:29.000 11008  607 
30 Christopher Hamilton   01:44:54.000  488 
31 Walter Poncio   01:08:15.000  585 
32 Khoa Phan   01:21:53.000  655 
DNS Lester Perez   DNS  506 Terry's Crew
DNS Evan McGinley   Fort Worth , TXDNS 433220  531 

Men - Cat 3 - 30-39

 Place Points NameCity, StateTime USAC #BibTeam
1530.69 Adam Brinker   Tyler00:51:49.000 424368  456 
2532.01 Justin Stoker   Austin, TX00:54:58.000 422422  548 512 Racing pb/AJ's
3533.33 Mario Lopez   Cypress, TX00:55:02.000 414591  490 Urban Bicycle Gallery
4534.65 Juan Pagan   Conroe, TX00:55:22.000 346064  542 Bikeland/WTF
5 David Henley   00:56:12.000  613 Neilson Devo
6 Matt Bunnel   00:56:31.000  534 
7 Chad Judd   00:56:50.000  469 
8539.93 Justin Shelton   Austin, TX00:57:19.000 419430  455 512 Racing pb/AJ Cyclery
9541.25 Terry Coots   Grand Prairie, TX00:57:20.000 395202  482 
10 Michael Sechrist   00:58:26.000  578 Honda of Houston
11 Justin Acance   00:58:28.000  460 
12 Gilbert Cantu   00:58:30.000  443 
13546.53 Alex De'Ath   Houston, TX00:59:05.000 393506  643 
14547.85 Carlos Vega   Richmond, TX00:59:29.000 422216  508 Natalee/Kyla Racing
15549.17 Cody Brown   Boerne, TX00:59:56.000 423454  554 Hill Country Bicycles Works
16550.49 Jovanne Hecita   Baytown, TX01:00:10.000 388398  522 Angry Sloth Racing
17551.81 Ross Haunschild   Dodge City, KS01:00:47.000 110530  565 
18 Jeff Ewing   01:00:49.000  559 Team Blanco Basura
19554.45 Carlos Barrios   Houston, TX01:00:51.000 294738  493 AUPAZ
20555.77 Ryan Cope   The Woodlands, TX01:01:50.000 120293  558 Blue Lab
21557.09 Raul Henao   Houston, TX01:02:09.000 395856  637 Angry Sloth Racing/Bicycle World of Hous
22 Tyson Dailey   01:02:20.000  442 
23 Justin Bender   01:02:30.000  471 Neilson Development Racing
24 Brady Brunelle   01:02:57.000  629 Bay Area Cycling
25 Marcus Gillaspia   01:02:58.000  467 Salad Extravaganza
26 Blake Horton   01:02:59.000  495 Bike Barn
27 Michael Pilkenton   01:03:00.000  566 Bikeland Developmental Factory Team
28566.33 Aaron Anderson   Frisco, TX01:03:01.000 385640  505 PACC
29567.65 Philip Potosnak   Mount Pleasant, SC01:03:11.000 265965  527 Dirt Sculpt
30 Tom Macomber   01:05:22.000  479 Not sure
31 Yasvil Kyhah   01:05:34.000  649 
32 Ed Osmena   01:05:36.000  612 
33 Clinton Taylor   01:05:58.000  550 Palser Chiropracic
34574.25 Jason Hughes   Houston, TX01:05:59.000 425188  645 
35 Chris Miguel   01:06:02.000  536 Skidmarks
36576.89 Erik Richenberger   Spring, TX01:06:33.000 407481  644 Team Bike Lane
37 Praxis Mata   01:06:40.000  654 Los Matas
38 Tino Infante   01:08:57.000  640 
39 Jorgen Lindquist   01:12:32.000  651 
40 Wladimir Moquete   01:12:59.000  485 AupaZ
41583.49 Jaime De Pujadas   Houston, TX01:13:30.000 386355  556 Ham Cycles
42584.81 Jose Munoz   Laredo, TX01:20:20.000 323290  617 Ciclomania Bike Shop
43 Ivan Miranda   01:23:07.000  642 
44 Jerad Greenleaf   01:25:04.000  619 
45 Michael Harris   01:34:58.000  504 Terry's Crew
46 Richard Tran   02:36:26.000  656 
DNF Edgar Reyes   DNF  592 
DNF Juan Felipe Serna   DNF  685 
DNF Cullen Burton   DNF  500 

Men - Cat 3 - 40-49

 Place Points NameCity, StateTime USAC #BibTeam
1523.98 Sean Maxey   Royse City, TX00:56:45.000 288696  530 Cadence Cyclery of McKinney
2525.33 Cesar Mora   Cypress, TX00:57:10.000 418952  540 Bike Barn
3526.68 Mark Mosier   Kerrville, TX00:58:02.000 396692  609 Hill Country Bicycle Works
4528.03 Robert Pabon   Houston, TX00:58:03.000 311306  620 Spider Monkey Racing
5 Tim Herndon   00:58:04.000  477 
6 Kendall Brock   00:58:23.000  563 
7532.08 William Collier   Cypress, TX00:59:14.000 392152  449 Bicycle World & Fitness
8 Jimmy White   00:59:40.000  648 Aggieland Cycling
9534.78 John Nguyen   Austin01:00:10.000 394038  448 Mofo Racing
10536.13 Robert Braatoe   Houston01:00:11.000 267284  458 
11 Juan Jacob Garcia   01:00:19.000  582 Team Wolf
12 Albert Salazar   01:00:21.000  624 
13 Toby Jeter   01:00:35.000  465 Team Green
14 Jon Ernst   01:01:00.000  503 Energy Arch
15 Jody Bowden   01:01:01.000  584 Team Xcelerators
16544.23 Guillermo Mercado   Tomball, TX01:01:04.000 404525  483 NEO/FEZZARI Hidden Peak
17 Robert Reich   01:01:05.000  586 
18 Donavan Strutt   01:01:57.000  615 Team Brute Farce
19548.28 Kai Dussling   Cypress, TX01:02:37.000 141302  532 Northwest Cycling Club
20 Ben Royer   01:02:42.000  630 TaterTakeOut
21550.98 Jeff Mohr   Missouri City, TX01:02:55.000 302839  457 Sugar Cycles Factor
22552.33 Ralph Logan   Magnolia, TX01:02:56.000 375074  441 WTF
23 Chris Esmilla   01:03:15.000  625 Blakfin
24 Jason Wiginton   01:03:50.000  579 
25 Vladimir Sandoval   01:04:29.000  571 Bike Barn
26557.73 Craig Fisher   Littleton, CO01:04:30.000 404708  481 
27559.08 Joel Turner   League City, TX01:04:32.000 367315  601 Cook Ford/Bay Area Cycles
28560.43 Steve Sievert   Houston, TX01:04:33.000 381274  533 Bicycle World Houston
29561.78 Jeffrey McLean   Baton Rouge, LA01:04:34.000 128817  589 
30 David Bendezu   01:04:52.000  484 
31564.48 John Jackson   Houston01:05:50.000 405805  555 Twin Six
32 Mansueto Quijote   01:05:51.000  517 Butiti MTB
33 Jason Stavinoha   01:05:55.000  466 Team Green
34 Oscar Perez   01:05:56.000  616 
35569.88 Jeff Wilson   Houston, TX01:06:04.000 236080  463 
36 Spencer Bridges   01:06:07.000  650 
37 Albert Lopez   01:06:13.000  604 
38 Chris Thayer   01:06:52.000  535 
39 Dave Cauwels   01:06:53.000  450 
40576.63 Scott Love   Montgomery, TX01:06:55.000 422831  492 
41577.98 Jeff Thacker   Houston01:09:09.000 425913  496 No Promises
42 Paul Schulz   01:11:21.000  561 
43 James Ellis   01:11:40.000  605 3#2
44582.03 Mike Leonard   Beaumont, TX01:11:46.000 214377  635 Team Turtle
45 Vincent Coppage   01:13:16.000  552 
46 Thomas Tang   01:18:29.000  626 Blakfin
47586.08 Garett O'Neal   Houston, TX01:20:23.000 43286  646 
48 Randal Matcek   01:20:48.000  632 
49 Charles O'Roake   01:27:01.000  528 
50590.13 Juan Marroquin   Missouri City, TX01:37:41.000 402957  684 Sugar Cycles
DNS Kevin McDonald   DNS  446 Flying Pigs
DNS Jeff Spears   MagnoliaDNS 413227  514 
DNF Kenneth Martin   DNF  464 Team Green
DNF Christopher Phillip   DNF  520 

Men - Cat 3 - 50-99

 Place Points NameCity, StateTime USAC #BibTeam
1 Fred Wills   00:52:30.000  486 Cycles TX
2 Ed Lamarche   00:55:43.000  611 WTF
3544.16 Don Armentrout   Beaumont, TX00:56:06.000 323656  634 Bronze Body Racing Team
4546.24 Mike Johnson   Garland, TX00:56:18.000 423737  515 Matrix/RBM
5548.32 David Calvo   San Antonio, TX00:57:17.000 336804  509 A1 Alarm & Tint
6550.40 John Hollansworth Jr   Lantana, TX00:57:32.000 422465  487 
7552.48 Kirk Simmons   Huntsville, TX00:58:53.000 424124  602 Centrado Energy
8 Rick Malone   00:59:20.000  641 
9 Keith Moore   00:59:56.000  501 Chicken E.
10 Colin Zelt   01:00:51.000  454 
11 Shannon Hodell   01:01:51.000  511 Sugar Cycles
12 James Gheida   01:01:58.000  608 
13 Sean O'Neill   01:03:21.000  636 
14567.04 Darrell Penkert   Spring, TX01:03:39.000 27650  576 West End/Huckabee
15569.12 Richard Shaw   Salt Lake City, UT01:04:11.000 32332  518 
16 Michael O'Toole   01:05:10.000  628 Team Bike Lane
17 Eddie Campbell   01:05:41.000  595 
18 Kerry Puckett   01:06:33.000  459 
19577.44 Robert Ludwick   Mckeesport Pa01:11:46.000 286175  510 Team America
20 Andrew Clark   01:14:10.000  597 Castell Racing
21 Armando Vazquez Jr   01:15:00.000  600 Full Monte
22 Hood Mauermann   01:15:15.000  657 Lone Star Bicycles
23585.76 Jose De La Rocha   Dallas, TX01:15:16.000 427768  596 Matrix/RBM
24 Matthias Geidel   01:15:17.000  538 
25 Charles Raiborn   01:21:37.000  462 
DNS Jeff Van Oonk   Tomball, TXDNS 347154  444 
DNS Robert Kouts   DNS  519 

Women - SS Open

 Place Points NameCity, StateTime USAC #BibTeam
1540.00 Stephanie Cole   Houston , TX01:57:29.000 418981  53 
2565.00 Jessica Green   Cypress , TX01:59:24.000 197940  42 Bike Barn (Texas)
3590.00 Tamra Trujillo   Houston, TX02:11:34.000 311468  104 Planetary Cycles

Women - Pro/Cat 1 - 0-99

 Place Points NameCity, StateTime USAC #BibTeam
1412.92 Lisa Uranga   Irving, TX01:48:28.000 325178  15 PACC
2429.51 Melissa White   Houston, TX01:48:31.000 366057  96 
3446.10 Liz Lurz   Abilene01:51:25.000 206473  89 Athletes On Track
4462.69 Sarah Ginsbach   Huntsville, TX01:53:28.000 319824  65 Bike Lane/ProGold Lubricants/WTF
5479.28 Cindy Abbott   Austin, TX01:57:48.000 390168  113 Breast Cancer Resource Center

Women - Cat 1 - 19-39

 Place Points NameCity, StateTime USAC #BibTeam
1505.88 Porsha Stockton   Allen, TX01:50:56.000 387609  69 Cadence Cyclery
2517.00 Lisa Hartman   Houston, TX01:53:09.000 217745  71 Sugar Cycles / Wholesome Sweetener
3528.12 Sydnei Anderson   Frisco, TX01:54:21.000 385671  34 Team PACC
4539.24 Tracy Jones   Houston, TX01:55:25.000 289166  32 Bayou City Racing
5550.36 Jodie Kay Wetuski   Willis, TX01:55:42.000 404607  73 Bicycle World of Houston
6561.48 Melainie Black   Houston02:00:32.000 40370  120 Mellow Johnny's Bike Shop
7572.60 Jillian Horn   Houston, TX02:05:45.000 289045  20 Sugar Cycles/
DNF Mary Gilmer   Chelsea, ALDNF 310472  22 Team Bike Lane

Women - Cat 1 - 40-49

 Place Points NameCity, StateTime USAC #BibTeam
1472.93 Kim Chance   Dallas, TX01:56:36.000 157443  56 Matrix Cycling Club/Richardson Bike Mart
2511.95 Julia Hart   Dallas, TX01:58:43.000 365842  58 Team PACC
3550.97 Melissa Grubbs   Hutto, TX01:59:02.000 350048  52 Team Bicycle Sport Shop
4589.99 Joy Billeaud   Waco Tx01:59:57.000 365178  125 Bicycles Outback Racing

Women - Cat 1 - 50-99

 Place Points NameCity, StateTime USAC #BibTeam
1 Lisa Nye-Salladin   Kerrville, TX02:00:43.000 26368  62 Hill Country Bicycle Works

Women - Cat 2 - 15-18

 Place Points NameCity, StateTime USAC #BibTeam
1 Lucy Brown   Houston, TX02:46:21.000 259584  350 Team Bicycle Sport Shop
DNS Kaylee Tredway   Rowlett, TXDNS 418515  219 Dallas Bike Works

Women - Cat 2 - 19-29

 Place Points NameCity, StateTime USAC #BibTeam
1535.92 Sheree Benavides   Dallas, TX02:00:26.000 411314  272 RBM/Matrix
2547.61 Megan Emerick   The Woodlands, TX02:03:15.000 346620  265 The Peddler Bike Shop
3559.30 Brittany Parffrey   Katy, TX02:03:47.000 377033  359 Bike Barn
4570.99 Laura Gonzalez   San Marcos, TX02:15:52.000 422739  267 
5582.68 Vicky Pabon   Houston, TX02:24:36.000 260836  328 Sugar Cycles / Wholesome Sweeteners

Women - Cat 2 - 30-39

 Place Points NameCity, StateTime USAC #BibTeam
1540.00 Katy Cornelius   Seabrook, TX02:00:43.000 366172  285 Texas Pro Health Racing
2 Kathrin Milbury   02:02:32.000  354 
3565.00 Anh Pham   Houston, TX02:09:04.000 396432  370 Angry Sloth Racing
4 Shannon Bell   02:09:08.000  331 Bicycles Inc.
5590.00 Shelli Tredway   Rowlett02:13:07.000 416834  220 Dallas Bike Works

Women - Cat 2 - 40-99

 Place Points NameCity, StateTime USAC #BibTeam
1535.87 Susan Pollard   Magnolia, TX02:08:46.000 368765  227 Bikelane
2549.04 Tricia Weir   Plano, TX02:12:33.000 272297  288 Matrix/RBM
3562.21 Leigh Anne Hollansworth   Lantana Tx02:13:00.000 412751  303 Dallas off Road Bicycling Association (DOBRA)
4575.38 Becky Gernand   Austin, TX02:19:31.000 422865  357 Team Wrecky

Women - Cat 3 - 1-10

 Place Points NameCity, StateTime USAC #BibTeam
1540.00 Gabriela Watts   Kerrville, TX00:40:26.000 428758  422 Hill Country Bicycle Works
2565.00 Emily Moyers   Spring, TX00:43:15.000 420224  402 Southern Elite/Sun&Ski
3590.00 Ellie Black   Austin 00:43:27.000 237331  413 Mellow Johnny's

Women - Cat 3 - 11-12

 Place Points NameCity, StateTime USAC #BibTeam
1518.90 Abigail Yates   Rowlett, TX00:52:04.000 386370  671 Matrix/RBM
2529.82 Emmaline Baxter-Harwell   Austin00:54:37.000 396592  677 Southern Elite/Sun & Ski Sports/PARD
3 MJ Lopez-Aguirre   00:55:45.000  682 Southern Elite/Sun & Ski
4 Grace Patterson   01:07:45.000  686 Sun & Ski
5 Peyton Poulos   01:08:18.000  674 
6 Bayley Otto   01:12:26.000  687 Bicycles Plus

Women - Cat 3 - 13-14

 Place Points NameCity, StateTime USAC #BibTeam
1 Abigail Yates   Rowlett, TX01:10:00.000 386370  6711 Matrix/RBM

Women - Cat 3 - 15-18

 Place Points NameCity, StateTime USAC #BibTeam
1 Kiara McDonald   Porter, TX01:32:37.000 368943  447 Southern Elite/Sun & Ski Sports

Women - Cat 3 - 19-29

 Place Points NameCity, StateTime USAC #BibTeam
1540.00 Venny Alub   New Waverly, TX01:02:11.000 404148  652 
2 Paige Carver   01:05:19.000  567 Bike Barn
3 Ashley Anders   01:13:12.000  516 West End Bicycles
4 Kendra Lucas   01:15:18.000  549 
DNF Tara Trujillo   DNF  568 

Women - Cat 3 - 30-39

 Place Points NameCity, StateTime USAC #BibTeam
1540.00 Eve Pearson   Fort Worth, TX01:01:49.000 428797  546 Nutriworks
2544.55 Hillary Hayden   Houston, TX01:03:11.000 424164  507 Bayou City Racing
3 Natalie Brown   01:04:18.000  553 Hill Country Bicycle Works
4 Linsey Henley   01:05:07.000  614 
5 Geovanna Velasquez   01:07:36.000  583 austin Ridge Rider
6562.75 Stacey Stromberg   Austin, TX01:07:42.000 422192  594 
7 Sonia Bradley   01:08:33.000  569 
8 Sonya Chaka   01:09:10.000  541 Bike Barn
9 Thresa Aguayo   01:12:42.000  524 Alloy Wheel Repair
10580.95 Jacy Crosby   Houston, TX01:15:48.000 423324  573 No Promises
11 Suzette Castillo   01:16:27.000  570 Nevin's Racing
12 Dominique Taylor   01:17:27.000  574 Palser Chiropractic

Women - Cat 3 - 40-99

 Place Points NameCity, StateTime USAC #BibTeam
1540.00 Kelly Grant   Houston01:06:37.000 365816  580 Northwest Cycles
2547.14 Elisa Rainey   Waco Texas01:08:09.000 399674  452 Bicycles Outback
3554.28 Joy Brott   Belton, TX01:11:03.000 217109  523 Tri-City Biccles
4 Tweety Blankenship   01:11:07.000  445 
5568.56 Mayrand Mary   Austin01:12:18.000 428371  593 Peddle Bike Shop
6 Stacy Armer   01:14:06.000  560 Rocky Hill
7 Angela Parker   01:19:45.000  468 
8 Deanne Moehn   01:32:42.000  543 OMW Racing

Report missing or incorrect license numbers

Volkswagen
Sierra NevadaBonk BreakerOSMOCUORESpyUSACDFShimano
UCI USA Cycling is the official governing body for all disciplines of competitive cycling in the United States. The 501c3, membership-based organization aims both to achieve sustained success in international cycling competition and to grow competitive cycling in America while delivering an exceptional customer experience.
View Children's Online Privacy Protection Policy
US Olympic Committee